Weather in Nagornoe

Russia / Khabarovsk Krai     48°36′17″N   135°04′11″E
temp.,
°C
wind,
m/s
gust,
m/s
humid.,
%
clouds,
%
prec.,
mm/h
press.,
hPa
HPBL,
m
9 march, tue
tue901:00−10s359165 0.0 102087
04:00−9s349082 0.0 101674
07:00−8ssw2586100 0.0 1012112
10:00−4ssw51482100 0.0 1009617
13:00−2sw81395100 0.5 1006998
16:00−1w71085100 1.1 1005970
19:00−3wsw5109699 0.2 1006408
22:00−3wnw6138599 0.4 1009437
10 march, wed
wed1001:00−7n239399 0.0 101256
04:00−8wnw229299 0.1 101727
07:00−8w3488100 0.0 102198
10:00−7wsw478465 0.0 1023222
13:00−5wsw58860 0.0 1022389
16:00−4wsw610857 0.0 1021444
19:00−6ssw479092 0.0 1021159
22:00−7ssw498796 0.0 1022199
11 march, thu
thu1101:00−6ssw4118591 0.0 1020287
04:00−8sw5118790 0.0 1019244
07:00−9wsw510908 0.0 1019200
10:00−7w714864 0.0 1021547
13:00−2wnw813730 0.0 1022955
16:00−2w610750 0.0 1023732
19:00−5wsw45810 0.0 102482
22:00−8w49800 0.0 1026121
12 march, fri
fri1201:00−9wsw511770 0.0 1027180
04:00−11wsw712780 0.0 1028205
07:00−11wsw610790 0.0 1030173
10:00−9wsw48810 0.0 1030265
13:00−5wsw46810 0.0 1030321
16:00−3sw588014 0.0 1028423
19:00−6ssw46908 0.0 1028126
22:00−6ssw499122 0.0 1028161
13 march, sat
sat1301:00−6sw5118694 0.0 1027231
04:00−6sw5128897 0.0 1026260
07:00−7sw5108895 0.0 1026208
10:00−3sw6128448 0.0 1024386
13:00−1sw611880 0.0 1023446
16:000sw512900 0.0 1021444
19:00−2sw47880 0.0 1021131
22:00−5sw23890 0.0 102234